Terug naar catalogus

CZ-6A DEB

ActiefPO
NORAD 61814·DEBRIS·🇨🇳 China

Gelanceerd Aug 6, 2024 vanaf Taiyuan Satellite Launch Center

Loading…

Volgende Passages (komende 24 uur)

TLE

VersSource: Space-Track

Epoch: Sep 14, 2026, 21:48 UTC

1 61814U 24140ACE 26257.90851213  .00006739  00000-0  14090-2 0  9993
2 61814  89.4808 306.3897 0041745 290.9277  68.7469 14.59209070105432

Volg CZ-6A DEB in realtime met AllMySat

Download on the App Store